Regional Weather Roundup
Issued by NWS

Home | Current Version | Previous Version | Graphics & Text | Print | Product List | Glossary On
Versions: 1 2 3 4 5 6 7 8 9 10 11 12 13 14 15 16 17 18 19 20 21 22 23 24 25 26 27 28 29 30 31 32 33 34 35 36 37 38 39 40 41 42 43 44 45 46 47 48 49 50
019
ASUS45 KCYS 210310
RWRWY

WYOMING REGIONAL WEATHER ROUNDUP
NATIONAL WEATHER SERVICE CHEYENNE WY
900 PM MDT FRI OCT 20 2017

NOTE:  "FAIR" INDICATES FEW OR NO CLOUDS BELOW 12,000 FEET
WITH NO SIGNIFICANT WEATHER AND/OR OBSTRUCTIONS TO VISIBILITY.

WYZ001-210400-
YELLOWSTONE NATIONAL PARK

CITY           SKY/WX    TMP DP  RH WIND       PRES   REMARKS
LK YELLOWSTONE   N/A     25  22  88 W8        29.77R WCI  16
W YELLOWSTONE  NOT AVBL

$$
WYZ002>013-054>058-071-098>099-210400-
NORTHERN WYOMING

CITY           SKY/WX    TMP DP  RH WIND       PRES   REMARKS
JACKSON        CLOUDY    30  28  93 S9        29.81R FOG     WCI  22
CODY           FAIR      44  21  40 W20G35    29.62R
GREYBULL       MOCLDY    51  18  27 NW8       29.58R
WORLAND        FAIR      50  14  23 N8        29.58R
SHERIDAN       MOCLDY    51  29  42 N23G41    29.51R
BUFFALO        FAIR      56  32  40 N21G28    29.50R
GILLETTE       FAIR      62  30  29 W21G26    29.46R
HULETT         FAIR      63  28  27 SW10      29.44R
NEWCASTLE      FAIR      57  28  33 NW3       29.45R

$$
WYZ014>020-022>026-101>103-210400-
CENTRAL WYOMING

CITY           SKY/WX    TMP DP  RH WIND       PRES   REMARKS
BIG PINEY      CLOUDY    32  19  58 N12       29.83R WCI  23
PINEDALE       MOCLDY    30  21  69 W13       29.82S WCI  20
DUBOIS         FAIR      32  18  55 NW18G33   29.70R WCI  20
LANDER         FAIR      41  15  35 W9        29.66R
RIVERTON       FAIR      43  13  29 NW18      29.65R
CASPER         CLOUDY    50  27  40 SW23G30   29.61R
DOUGLAS        FAIR      58  30  34 W18       29.56R

$$
WYZ021-027>030-104>119-210400-
SOUTHERN WYOMING

CITY           SKY/WX    TMP DP  RH WIND       PRES   REMARKS
EVANSTON       FAIR      28  23  81 W12       29.90R WCI  18
FORT BRIDGER   FAIR      31  26  81 SW8       29.91R WCI  24
ROCK SPRINGS   MOCLDY    34  19  54 W16G23    29.84R WCI  24
DIXON          LGT SNOW  33  32  96 W5        29.88S VSB 3/4 WCI  28
RAWLINS        CLOUDY    37  28  70 W22G29    29.76S WCI  26
SARATOGA       SNOW      32  32 100 W13G25    29.84R VSB<1/4 WCI  22
LARAMIE        MOCLDY    43  32  65 NW17G30   29.69R
CHEYENNE       FAIR      55  27  34 NW16G24   29.60R
TORRINGTON     MOCLDY    63  31  30 S7        29.46R THUNDER
PINE BLUFFS    FAIR      55  32  41 S7        29.53R

$$




USA.gov is the U.S. government's official web portal to all federal, state and local government web resources and services.